Location: Unspecified
(0.0000°N, 0.0000°E)
Time: 16:27:43
(UTC+00:00)

CZ-3C DEB - Pass Details

Date: 10 March 2026
Orbit: 544 x 34777 km, 21.8° (Epoch: 16 April)

Event Time Altitude Azimuth Distance (km) Brightness Sun altitude
Exits shadow 05:02:33 32° 287° (WNW) 1,041 ? -16.9°
Maximum altitude 05:04:09 82° 202° (SSW) 717 ? -16.5°
Drops below altitude 10° 05:11:48 10° 114° (ESE) 4,153 ? -14.6°
Sets 05:18:39 0° 114° (ESE) 7,293 ? -12.9°
